| time (UTC) | temp F | wind direction | speed MPH | gust MPH | rain 1hr in | rain 24hr in | rain mn in | humidity % | barometer mb |
| 20260502215603 | 61 | 178 | 3.0 | 6.0 | 0.00 | 0.00 | 0.00 | 80 | 1035.3 |
| 20260502214058 | 60 | 213 | 3.0 | 5.0 | 0.00 | 0.00 | 0.00 | 84 | 1035.3 |
| 20260502213257 | 59 | 202 | 3.0 | 5.0 | 0.00 | 0.00 | 0.00 | 84 | 1035.4 |
| 20260502211055 | 58 | 184 | 3.0 | 6.0 | 0.00 | 0.00 | 0.00 | 87 | 1035.2 |
| 20260502205551 | 57 | 221 | 4.0 | 6.0 | 0.00 | 0.00 | 0.00 | 89 | 1035.2 |
| 20260502204051 | 56 | 192 | 3.0 | 6.0 | 0.00 | 0.00 | 0.00 | 90 | 1035.1 |
| 20260502202547 | 55 | 210 | 4.0 | 6.0 | 0.00 | 0.00 | 0.00 | 90 | 1035.2 |
| 20260502201043 | 55 | 233 | 3.0 | 6.0 | 0.00 | 0.00 | 0.00 | 91 | 1035.4 |
| 20260502195543 | 55 | 255 | 3.0 | 4.0 | 0.00 | 0.00 | 0.00 | 91 | 1035.2 |
| 20260502194039 | 55 | 206 | 1.0 | 2.0 | 0.00 | 0.00 | 0.00 | 91 | 1035.1 |
| 20260502192538 | 55 | 206 | 0.0 | 6.0 | 0.00 | 0.00 | 0.00 | 91 | 1035.0 |
| 20260502191035 | 54 | 215 | 2.0 | 4.0 | 0.00 | 0.00 | 0.00 | 91 | 1034.8 |
| 20260502185530 | 54 | 263 | 1.0 | 3.0 | 0.00 | 0.00 | 0.00 | 90 | 1034.8 |
| 20260502184033 | 54 | 186 | 1.0 | 3.0 | 0.00 | 0.00 | 0.00 | 91 | 1034.7 |
| 20260502182527 | 54 | 217 | 0.0 | 4.0 | 0.00 | 0.00 | 0.00 | 91 | 1034.6 |
| 20260502181029 | 54 | 229 | 3.0 | 6.0 | 0.00 | 0.00 | 0.00 | 91 | 1034.5 |
| 20260502164012 | 54 | 209 | 2.0 | 4.0 | 0.00 | 0.00 | 0.00 | 92 | 1034.2 |
| 20260502162507 | 54 | 217 | 4.0 | 5.0 | 0.00 | 0.00 | 0.00 | 92 | 1034.2 |
| 20260502161714 | 54 | 236 | 2.0 | 5.0 | 0.00 | 0.00 | 0.00 | 92 | 1034.2 |
| 20260502151642 | 54 | 194 | 2.0 | 3.0 | 0.00 | 0.00 | 0.00 | 92 | 1034.4 |
| 20260502122405 | 54 | 182 | 2.0 | 4.0 | 0.00 | 0.00 | 0.00 | 91 | 1034.6 |
| 20260502120901 | 53 | 204 | 0.0 | 3.0 | 0.00 | 0.00 | 0.00 | 91 | 1034.6 |
| 20260502115357 | 54 | 202 | 2.0 | 4.0 | 0.00 | 0.00 | 0.00 | 91 | 1034.5 |
| 20260502113852 | 54 | 204 | 3.0 | 4.0 | 0.00 | 0.00 | 0.00 | 90 | 1034.5 |
| 20260502112348 | 54 | 213 | 2.0 | 5.0 | 0.00 | 0.00 | 0.00 | 90 | 1034.5 |
| 20260502110848 | 54 | 215 | 3.0 | 5.0 | 0.00 | 0.00 | 0.00 | 90 | 1034.4 |
| 20260502110038 | 54 | 225 | 3.0 | 5.0 | 0.00 | 0.00 | 0.00 | 90 | 1034.4 |
| 20260502103844 | 54 | 205 | 2.0 | 4.0 | 0.00 | 0.00 | 0.00 | 89 | 1034.6 |
| 20260502102340 | 54 | 214 | 2.0 | 4.0 | 0.00 | 0.00 | 0.00 | 89 | 1034.4 |
| 20260502102226 | 55 | 233 | 3.0 | 5.0 | 0.00 | 0.00 | 0.00 | 88 | 1034.2 |
| 20260502090828 | 56 | 202 | 3.0 | 5.0 | 0.00 | 0.00 | 0.00 | 87 | 1034.0 |
| 20260502070747 | 57 | 210 | 2.0 | 3.0 | 0.00 | 0.00 | 0.00 | 82 | 1033.4 |
| 20260502065238 | 57 | 239 | 2.0 | 3.0 | 0.00 | 0.00 | 0.00 | 81 | 1033.4 |
| 20260502063734 | 57 | 239 | 2.0 | 3.0 | 0.00 | 0.00 | 0.00 | 80 | 1033.2 |
| 20260502062229 | 58 | 292 | 2.0 | 2.0 | 0.00 | 0.00 | 0.00 | 79 | 1033.1 |
| 20260502060724 | 58 | 297 | 1.0 | 4.0 | 0.00 | 0.00 | 0.00 | 78 | 1033.0 |
| 20260502055220 | 59 | 294 | 2.0 | 3.0 | 0.00 | 0.00 | 0.00 | 76 | 1032.9 |
| 20260502053716 | 60 | 296 | 2.0 | 3.0 | 0.00 | 0.00 | 0.00 | 74 | 1032.8 |
| 20260502052217 | 61 | 339 | 2.0 | 3.0 | 0.00 | 0.00 | 0.00 | 72 | 1032.7 |
| 20260502050712 | 62 | 17 | 0.0 | 4.0 | 0.00 | 0.00 | 0.00 | 71 | 1032.7 |
| 20260502045209 | 62 | 28 | 3.0 | 5.0 | 0.00 | 0.00 | 0.00 | 69 | 1032.8 |
| 20260502043703 | 63 | 40 | 4.0 | 6.0 | 0.00 | 0.00 | 0.00 | 68 | 1032.9 |
| 20260502042203 | 63 | 22 | 4.0 | 6.0 | 0.00 | 0.00 | 0.00 | 68 | 1033.1 |
| 20260502041350 | 63 | 44 | 4.0 | 5.0 | 0.00 | 0.00 | 0.00 | 69 | 1032.9 |
| 20260502035154 | 64 | 38 | 4.0 | 5.0 | 0.00 | 0.00 | 0.00 | 66 | 1032.9 |
| 20260502033655 | 64 | 20 | 3.0 | 6.0 | 0.00 | 0.00 | 0.00 | 65 | 1032.9 |
| 20260502032151 | 64 | 34 | 4.0 | 7.0 | 0.00 | 0.00 | 0.00 | 65 | 1033.0 |
| 20260502030651 | 65 | 26 | 3.0 | 5.0 | 0.00 | 0.00 | 0.00 | 65 | 1033.1 |
| 20260502025147 | 65 | 59 | 2.0 | 4.0 | 0.00 | 0.00 | 0.00 | 67 | 1033.1 |
| 20260502023648 | 64 | 101 | 2.0 | 7.0 | 0.00 | 0.00 | 0.00 | 68 | 1033.3 |
| 20260502022143 | 64 | 98 | 4.0 | 8.0 | 0.00 | 0.00 | 0.00 | 69 | 1033.5 |
| 20260502020638 | 64 | 113 | 5.0 | 10.0 | 0.00 | 0.00 | 0.00 | 69 | 1033.6 |
| 20260502015140 | 64 | 123 | 4.0 | 8.0 | 0.00 | 0.00 | 0.00 | 70 | 1033.7 |
| 20260502013635 | 63 | 94 | 7.0 | 10.0 | 0.00 | 0.00 | 0.00 | 69 | 1033.9 |
| 20260502012135 | 63 | 123 | 7.0 | 10.0 | 0.00 | 0.00 | 0.00 | 70 | 1033.9 |
| 20260502012043 | 63 | 107 | 5.0 | 9.0 | 0.00 | 0.00 | 0.00 | 70 | 1034.1 |
| 20260502005127 | 62 | 114 | 4.0 | 9.0 | 0.00 | 0.00 | 0.00 | 73 | 1034.4 |
| 20260502003627 | 62 | 120 | 3.0 | 9.0 | 0.00 | 0.00 | 0.00 | 72 | 1034.7 |
| 20260502002818 | 62 | 94 | 4.0 | 10.0 | 0.00 | 0.00 | 0.00 | 72 | 1034.8 |
| 20260502000624 | 62 | 101 | 4.0 | 10.0 | 0.00 | 0.00 | 0.00 | 73 | 1034.9 |
| 20260501235119 | 62 | 101 | 2.0 | 6.0 | 0.00 | 0.00 | 0.00 | 74 | 1035.2 |
| 20260501234220 | 61 | 238 | 3.0 | 8.0 | 0.00 | 0.00 | 0.00 | 74 | 1035.4 |
| 20260501233633 | 61 | 164 | 3.0 | 9.0 | 0.00 | 0.00 | 0.00 | 74 | 1035.3 |
| 20260501230613 | 61 | 202 | 4.0 | 7.0 | 0.00 | 0.00 | 0.00 | 73 | 1035.5 |
| 20260501225112 | 61 | 197 | 4.0 | 9.0 | 0.00 | 0.00 | 0.00 | 73 | 1035.6 |
| 20260501223607 | 60 | 148 | 4.0 | 7.0 | 0.00 | 0.00 | 0.00 | 74 | 1035.7 |
| 20260501222103 | 59 | 209 | 4.0 | 8.0 | 0.00 | 0.00 | 0.00 | 74 | 1035.6 |
| 20260501220558 | 59 | 193 | 2.0 | 7.0 | 0.00 | 0.00 | 0.00 | 75 | 1035.7 |